Regional Weather Roundup
Issued by NWS Cleveland, OH

Home | Current Version | Previous Version | Text Only | Print | Product List | Glossary Off
Versions: 1 2 3 4 5 6 7 8 9 10 11 12 13 14 15 16 17 18 19 20 21 22 23 24 25 26 27 28 29 30 31 32 33 34 35 36 37 38 39 40 41 42 43 44 45 46 47 48 49 50

000
ASUS41 KCLE 210212
RWRCLE
OHIO REGIONAL WEATHER ROUNDUP
NATIONAL WEATHER SERVICE WILMINGTON, OH
1000 PM EDT THU JUL 20 2017

NOTE: "FAIR" INDICATES FEW OR NO CLOUDS BELOW 12,000 FEET WITH NO
SIGNIFICANT WEATHER AND/OR OBSTRUCTIONS TO VISIBILITY.

OHZ001>008-015>018-024>027-034-035-043-044-210300-
   NORTHWEST OHIO

CITY           SKY/WX    TMP DP  RH WIND       PRES   REMARKS
DEFIANCE       CLOUDY   N/A N/A N/A S5        29.96S
FINDLAY        CLOUDY    79  71  76 S6        29.97S
TOLEDO EXPRESS FAIR      76  72  87 S6        29.95S
TOLEDO EXEC    FAIR      80  72  76 SW6       29.96S
LIMA           MOCLDY    79  74  84 SE3       29.99S
$$

OHZ009>014-019>023-028>033-038-089-210300-
   NORTHEAST OHIO

CITY           SKY/WX    TMP DP  RH WIND       PRES   REMARKS
CLE-HOPKINS    MOCLDY    83  68  60 CALM      29.98R
CLE-LAKEFRONT  MOCLDY    80  67  64 CALM      29.95R
CUY CO. ARPT   PTCLDY    79  66  65 CALM      29.97S
LORAIN-ELYRIA  FAIR      75  67  76 CALM      29.97S
ASHTABULA      FAIR      72  70  93 CALM      29.97R
AKRON-CANTON   FAIR      79  69  71 SW7       29.99R
WOOSTER        FAIR      76  73  91 SW5       30.00R
MANSFIELD      FAIR      77  72  84 SW6       30.00S
YOUNGSTOWN     MOCLDY    73  67  81 CALM      29.99R
$$

OHZ042-051>053-060>062-070>072-077>081-210300-
  SOUTHWEST OHIO

CITY           SKY/WX    TMP DP  RH WIND       PRES   REMARKS
CINC-COVINGTON MOCLDY    80  74  81 SW5       30.01S
CINC-LUNKEN    CLOUDY    82  74  76 S5        30.00R
HAMILTON       CLOUDY    80  76  87 CALM      30.00R
DAYTON         MOCLDY    81  75  82 S6        30.01R
WRIGHT-PAT AFB MOCLDY    81  78  91 SW3       30.00R
DAYTON GENERAL CLOUDY    83  73  72 SW5       30.00S
WILMINGTON     LGT RAIN  80  79  96 CALM      30.01S
$$

OHZ036-037-039>041-045>050-054>059-063>069-073>076-082>088-210300-
  CENTRAL AND SOUTHEAST OHIO

CITY           SKY/WX    TMP DP  RH WIND       PRES   REMARKS
COLUMBUS       CLOUDY    82  73  74 W3        29.99F
OSU AIRPORT    CLOUDY    81  75  82 CALM      30.00S
BOLTON FIELD   CLOUDY    77  76  94 S3        30.01S
RICKENBACK AFB CLOUDY    78  75  91 S5        30.00R
NEWARK         FAIR      77  73  87 S3        30.00R
MARION         CLOUDY    79  70  74 SW8       30.00S
LANCASTER      CLOUDY    77  74  90 S3        30.01S
ZANESVILLE     FAIR      79  72  79 SW6       30.00R
NEW PHILLY     FAIR      75  73  93 SE3       30.00R
$$




USA.gov is the U.S. government's official web portal to all federal, state and local government web resources and services.